Home   Weather   Kempen   Past weeks

Flag for Germany Past Weather in Kempen, North Rhine-Westphalia, Germany — Yesterday and Last 2 Weeks

Now
64 °F

Passing clouds.


Feels Like: 64 °F
Forecast: 54 / 64 °F
Wind: 9 mph from South

Location: Duesseldorf

Current Time: Sep 29, 2016 at 2:02:29 AM

Latest Report: Sep 29, 2016 at 1:20 AM


Visibility: N/A

Pressure: 30.18 "Hg

Humidity: 73%

Dew Point: 55 °F

Location of KempenLocation

Past Weather in Kempen — Graph

°F

Kempen Temperature Yesterday

Maximum temperature yesterday: 73 °F (at 4:20 PM)
Minimum temperature yesterday: 54 °F (at 1:50 AM)
Average temperature yesterday: 64 °F

High & Low Weather Summary for the Past Weeks

 TemperatureHumidityPressure
High90 °F (Sep 14, 1:20 PM)100% (Sep 16, 2:20 AM)30.33 "Hg (Sep 16, 2:20 AM)
Low45 °F (Sep 27, 7:20 AM)27% (Sep 14, 3:50 PM)29.77 "Hg (Sep 15, 4:20 PM)
Average63 °F70%30.09 "Hg
* Reported Sep 14 12:20 AM — Sep 29 12:50 AM, Kempen, Weather by CustomWeather, © 2016

Note: Actual official high and low records may vary slightly from our data, if they occured in-between our weather recording intervals... More about our weather records

Advertising

Kempen Weather History for the Previous 24 Hours

Scroll right to see more
 ConditionsComfort  
Time TempWeatherWind HumidityBarometerVisibility
12:50 AM
Thu, Sep 29
64 °FPassing clouds.10 mph73%30.21 "HgN/A
12:20 AM66 °FPassing clouds.10 mph68%30.21 "HgN/A
11:50 PM
Wed, Sep 28
66 °FPassing clouds.13 mph68%30.21 "HgN/A
11:20 PM66 °FPassing clouds.14 mph68%30.21 "HgN/A
10:50 PM66 °FPassing clouds.12 mph68%30.21 "HgN/A
10:20 PM68 °FClear.14 mph64%30.21 "Hg10 mi
9:50 PM68 °FClear.13 mph64%30.21 "Hg10 mi
9:20 PM68 °FClear.12 mph64%30.21 "Hg10 mi
8:50 PM68 °FClear.12 mph60%30.21 "Hg10 mi
8:20 PM70 °FClear.9 mph57%30.21 "Hg10 mi
7:50 PM68 °FClear.12 mph56%30.24 "Hg10 mi
7:20 PM70 °FClear.13 mph53%30.24 "Hg10 mi
6:50 PM70 °FSunny.10 mph53%30.24 "Hg10 mi
6:20 PM70 °FSunny.15 mph53%30.24 "Hg10 mi
5:50 PM72 °FSunny.14 mph53%30.24 "Hg10 mi
5:20 PM72 °FSunny.15 mph53%30.24 "Hg10 mi
4:50 PM72 °FScattered clouds.17 mph53%30.24 "HgN/A
4:20 PM73 °FPartly sunny.16 mph53%30.24 "HgN/A
3:50 PM72 °FPartly sunny.14 mph53%30.24 "HgN/A
3:20 PM72 °FPartly sunny.17 mph53%30.24 "HgN/A
2:50 PM72 °FPartly sunny.15 mph53%30.24 "HgN/A
2:20 PM70 °FPartly sunny.16 mph60%30.24 "HgN/A
1:50 PM70 °FPartly sunny.15 mph60%30.24 "HgN/A
1:20 PM70 °FBroken clouds.15 mph64%30.27 "HgN/A
12:50 PM68 °FPartly sunny.17 mph69%30.27 "HgN/A
12:20 PM64 °FPartly sunny.12 mph78%30.27 "HgN/A
11:50 AM64 °FPartly sunny.13 mph78%30.27 "HgN/A
11:20 AM64 °FPartly sunny.13 mph73%30.27 "HgN/A
10:50 AM63 °FPartly sunny.14 mph73%30.27 "HgN/A
10:20 AM63 °FPartly sunny.14 mph73%30.27 "HgN/A
9:50 AM61 °FPartly sunny.13 mph72%30.27 "HgN/A
9:20 AM61 °FPartly sunny.13 mph63%30.27 "HgN/A
8:50 AM61 °FPartly sunny.9 mph63%30.27 "HgN/A
8:20 AM61 °FPartly sunny.7 mph63%30.27 "HgN/A
7:50 AM61 °FPartly sunny.9 mph59%30.27 "HgN/A
7:20 AM61 °FPassing clouds.12 mph59%30.24 "HgN/A
6:50 AM59 °FClear.12 mph63%30.24 "Hg10 mi
6:20 AM57 °FClear.12 mph72%30.24 "Hg10 mi
5:50 AM57 °FClear.9 mph72%30.27 "Hg10 mi
5:20 AM59 °FClear.8 mph72%30.27 "Hg10 mi
4:50 AM57 °FPassing clouds.9 mph77%30.27 "HgN/A
4:20 AM57 °FPartly cloudy.9 mph77%30.27 "HgN/A
3:50 AM57 °FPartly cloudy.8 mph77%30.27 "HgN/A
3:20 AM57 °FPassing clouds.9 mph77%30.27 "HgN/A
2:20 AM54 °FClear.7 mph88%30.30 "Hg10 mi
Weather by CustomWeather, © 2016

See weather overviewHow to use our weather pages